Time,TemperatureF,DewpointF,PressureIn,WindDirection,WindDirectionDegrees,WindSpeedMPH,WindSpeedGustMPH,Humidity,HourlyPrecipIn,Conditions,Clouds,dailyrainin,SoftwareType,DateUTC
2013-09-10 00:42:00,63.0,60.0,29.79,West,260,3.0,-999.0,89,0.00,,,-99.99,,2013-09-10 07:42:00,
2013-09-10 01:42:00,63.0,60.0,29.80,NNW,330,4.0,-999.0,90,0.00,,,-99.99,,2013-09-10 08:42:00,
2013-09-10 02:43:00,63.0,60.0,29.81,North,0,0.0,-999.0,89,0.00,,,-99.99,,2013-09-10 09:43:00,
2013-09-10 03:42:00,64.0,60.0,29.81,North,0,0.0,-999.0,88,0.00,,,-99.99,,2013-09-10 10:42:00,
2013-09-10 04:42:00,64.0,60.0,29.82,East,80,3.0,-999.0,87,0.00,,,-99.99,,2013-09-10 11:42:00,
2013-09-10 05:42:00,65.0,61.0,29.82,East,90,2.0,-999.0,86,0.00,,,-99.99,,2013-09-10 12:42:00,
2013-09-10 06:42:00,65.0,61.0,29.83,North,0,0.0,-999.0,86,0.00,,,-99.99,,2013-09-10 13:42:00,
2013-09-10 07:42:00,65.0,61.0,29.84,NNW,330,2.0,-999.0,86,0.00,,,-99.99,,2013-09-10 14:42:00,
2013-09-10 08:43:00,65.0,59.0,29.86,SSE,150,1.0,-999.0,82,0.00,,,-99.99,,2013-09-10 15:43:00,
2013-09-10 09:43:00,66.0,60.0,29.88,South,170,5.0,-999.0,81,0.00,,,-99.99,,2013-09-10 16:43:00,
2013-09-10 10:43:00,67.0,60.0,29.88,SSW,200,3.0,-999.0,78,0.00,,,-99.99,,2013-09-10 17:43:00,
2013-09-10 11:43:00,69.0,61.0,29.88,South,190,3.0,-999.0,75,0.00,,,-99.99,,2013-09-10 18:43:00,
2013-09-10 12:42:00,70.0,61.0,29.88,SW,220,3.0,-999.0,74,0.00,,,-99.99,,2013-09-10 19:42:00,
2013-09-10 13:42:00,69.0,61.0,29.88,West,260,4.0,-999.0,76,0.00,,,-99.99,,2013-09-10 20:42:00,
2013-09-10 14:44:00,69.0,61.0,29.86,WSW,250,5.0,-999.0,77,0.00,,,-99.99,,2013-09-10 21:44:00,
2013-09-10 15:42:00,69.0,61.0,29.85,WSW,250,4.0,-999.0,76,0.00,,,-99.99,,2013-09-10 22:42:00,
2013-09-10 16:42:00,68.0,61.0,29.85,WNW,300,5.0,-999.0,79,0.00,,,-99.99,,2013-09-10 23:42:00,
2013-09-10 17:22:00,68.0,62.0,29.85,WNW,290,5.0,-999.0,80,0.00,,,-99.99,,2013-09-11 00:22:00,
2013-09-10 17:32:00,68.0,62.0,29.85,WNW,290,5.0,-999.0,80,0.00,,,-99.99,,2013-09-11 00:32:00,
2013-09-10 17:42:00,68.0,62.0,29.85,WNW,290,5.0,-999.0,80,0.00,,,-99.99,,2013-09-11 00:42:00,
2013-09-10 18:42:00,68.0,61.0,29.86,West,270,2.0,-999.0,78,0.00,,,-99.99,,2013-09-11 01:42:00,
2013-09-10 19:43:00,67.0,61.0,29.87,SW,230,2.0,-999.0,81,0.00,,,-99.99,,2013-09-11 02:43:00,
2013-09-10 20:44:00,65.0,60.0,29.88,WNW,300,7.0,-999.0,83,0.00,,,-99.99,,2013-09-11 03:44:00,
2013-09-10 21:43:00,65.0,60.0,29.90,NW,310,8.0,-999.0,84,0.00,,,-99.99,,2013-09-11 04:43:00,
2013-09-10 22:42:00,65.0,60.0,29.91,NW,320,6.0,-999.0,83,0.00,,,-99.99,,2013-09-11 05:42:00,
2013-09-10 23:42:00,64.0,58.0,29.91,NW,310,5.0,-999.0,82,0.00,,,-99.99,,2013-09-11 06:42:00,